User: anonymous   Login
Location: Bois de la Silve
(44.4667°N, 6.7833°E)
Time: 10:08:19
(UTC+00:00)
Language:

Cosmos 1515 - Orbit

View from above orbital plane
View from above orbital plane
View from above satellite
View from above satellite

Ground track
Ground track

The orbit data is extracted from the following two-line orbital elements,

1 14551U 83122A   20271.97402462 +.00000707 +00000-0 +32858-4 0  9992
2 14551 082.4976 067.3536 0008725 089.0400 031.6700 15.18304680751395
Epoch (UTC): 27 September 2020 23:22:35
Eccentricity: 0.0008725
inclination: 82.4976°
perigee height: 505 km
apogee height: 517 km
right ascension of ascending node: 67.3536°
argument of perigee: 89.0400°
revolutions per day: 15.18304680
mean anomaly at epoch: 31.6700°
orbit number at epoch: 75139

The dashed part of the orbit path shows where the satellite is in the earth's shadow,  

DLR